星链-33596 (STARLINK-33596)

导读

STARLINK-33596是美国SpaceX公司星链星座的一员,于2025年1月21日发射入轨。作为低轨通信卫星,它采用平板设计与氪工质霍尔推进器,搭载Ku/Ka波段通信载荷与光学星间链路,具备自主避撞能力,旨在为全球偏远及基础设施匮乏区域提供高速低延迟宽带互联网服务,助力星链星座持续扩展全球网络覆盖。

Basic Information
目录编号:
62758
目录名称:
STARLINK-33596
国际标识:
2025-015A
轨道中心:
EARTH
卫星名称:
星链-33596
卫星全名:
星链-33596 (STARLINK-33596)
卫星状态:
在轨 (已飞行509 天)
发射日期:
2025-01-21 UTC
国别 :
美国 (US)
星等 :
--
Orbit Information
数据来源 国际轨道数据 AOE轨道数据
星历时间 2026-06-14T05:24:05+0800
12小时前
查看轨道信息
2026-06-12T05:00:00+0800
2天前
查看轨道信息
半长轴 6848.842km 6848.784km
偏心率 0.0001087 0.0001265
轨道倾角 53.158° 53.158°
近地点辐角 91.011° 63.576°
升交点赤经 235.362° 244.752°
平近点角 269.102° 329.863°
近地点 469.96km 469.78km
远地点 471.45km 471.514km
周期 94.012分钟 94.011分钟
每日圈数 15.317118 15.317312
Detailed Information
固有亮度:
5
最大亮度:
2.5
卫星平台:
Starlink V1.0
覆盖范围:
全球
运营商:
太空探索技术公司
运营商所在国:
美国
制造商(研发单位):
太空探索技术公司
制造商所在国:
美国
使用方式:
暂无
Satellite Introduction
Starlink 计划是 SpaceX 推出的全球卫星互联网项目,通过发射低轨道卫星,为全球尤其是偏远地区提供高速、低延迟的互联网服务。自 2019 年起,Starlink 已部署数千颗卫星,旨在缩小全球数字鸿沟,推动互联网普及。该项目还为军事、航空等行业提供通信支持,带来广泛经济效益。
2D Orbit Map
3D Orbit Map
Orbit Altitude Analysis Chart
Orbit Inclination Analysis Chart
Orbit Comprehensive Analysis Chart
View Comprehensive Chart